Regional Weather Roundup
Issued by NWS Bismarck, ND

Home | Current Version | Previous Version | Text Only | Print | Product List | Glossary On
Versions: 1 2 3 4 5 6 7 8 9 10 11 12 13 14 15 16 17 18 19 20 21 22 23 24 25 26 27 28 29 30 31 32 33 34 35 36 37 38 39 40 41 42 43 44 45 46 47 48 49 50
000
ASUS43 KBIS 270610
RWRBIS

NWR BROADCAST TEXT
NATIONAL WEATHER SERVICE BISMARCK ND
100 AM CDT SAT MAY 27 2017

NOTE: "FAIR" INDICATES FEW OR NO CLOUDS BELOW 12,000 FEET WITH NO
SIGNIFICANT WEATHER AND/OR OBSTRUCTIONS TO VISIBILITY.


CITY           SKY/WX    TMP DP  RH WIND       PRES   REMARKS
WILLISTON      FAIR      52  39  61 W13       29.84F
MINOT          FAIR      52  38  58 SW8       29.79S
MINOT AFB      FAIR      52  39  62 W12       29.78S
BISMARCK       FAIR      53  38  56 SW5       29.86S
DICKINSON      FAIR      46  33  60 W8        29.87S
GARRISON         N/A     50  35  56 W8        29.83R
HETTINGER ARPT FAIR      49  36  61 NW3       29.93S
JAMESTOWN      FAIR      53  41  63 SW8       29.82S
HAZEN          FAIR      46  37  71 SW6       29.87R
LINTON         FAIR      48  43  81 CALM      29.89S
MANDAN         FAIR      52  37  58 SW7       29.86S
STANLEY        FAIR      46  45  93 W9        29.85R
TIOGA          FAIR      48  39  71 W10       29.84S
WATFORD CITY   FAIR      46  39  76 SW7       29.85S
$$

CITY           SKY/WX    TMP DP  RH WIND       PRES   REMARKS
GRAND FORKS    FAIR      53  44  71 SW10      29.77S
GRAND FORKS AF FAIR      48  42  79 SW7       29.78S
DEVILS LAKE    FAIR      53  45  74 SW9       29.79R
FARGO          FAIR      53  43  68 S8        29.82R
CAVALIER       FAIR      52  41  66 SW7       29.75R
GRAFTON        FAIR      48  43  81 SW10      29.78S
GWINNER        CLEAR     50  45  81 MISG      29.85S
LANGDON        FAIR      45  41  87 SW6       29.77S
ROLLA          FAIR      46  41  81 SW9       29.76S
$$

CITY           SKY/WX    TMP DP  RH WIND       PRES   REMARKS
ABERDEEN       FAIR      50  41  71 CALM      29.88R
MOBRIDGE       FAIR      55  40  56 SE5       29.86S
BUFFALO          N/A     50  40  68 W6        29.88F
RAPID CITY     LGT RAIN  51  48  89 NW6       30.00S
GLASGOW        FAIR      48  39  71 W6        29.89F
SIDNEY         FAIR      48  37  65 NW8       29.87S
WOLF POINT     FAIR      46  37  71 W8        29.89S
GLENDIVE       FAIR      45  36  70 W9        29.91S
MILES CITY     FAIR      47  31  53 NW7       29.94R
BAKER          FAIR      50  36  58 W5        29.94R
$$

CITY           SKY/WX    TMP DP  RH WIND       PRES   REMARKS
BILLINGS       CLOUDY    52  38  58 N3        30.01R
GREAT FALLS    FAIR      48  39  71 SW12      30.00R
REGINA         PTCLDY    48  41  76 W12       29.77S
ESTEVAN        PTCLDY    54  41  62 W16G25    29.79S
$$




USA.gov is the U.S. government's official web portal to all federal, state and local government web resources and services.